Flag for Cabo Verde Weather past 2 weeks in Santa Maria, Cabo Verde

Now
72 °F

Partly sunny.


Feels Like: 74 °F
Forecast: 69 / 79 °F
Wind: 16 mph from Northeast

Location: Sal

Current Time: May 23, 2015 at 8:21:09 AM

Latest Report: May 23, 2015 at 8:00 AM


Visibility: N/A

Pressure: 30.07 "Hg

Humidity: 73%

Dew point: 63 °F

Location of Santa MariaLocation

Historic Weather in Santa Maria — Graph

°F

Santa Maria temperature yesterday

Maximum temperature yesterday: 77 °F (at 11:00 AM)
Minimum temperature yesterday: 68 °F (at 2:00 AM)
Average temperature yesterday: 72 °F

Past Weeks' High & Low Weather Summary

 TemperatureHumidityPressure
High82 °F (May 15, 12:00 PM)94% (May 10, 5:00 AM)30.09 "Hg (May 10, 5:00 AM)
Low68 °F (May 10, 5:00 AM)54% (May 8, 12:00 PM)29.86 "Hg (May 10, 4:00 PM)
Average74 °F75%29.96 "Hg
* Reported May 8 7:00 AM — May 23 7:00 AM, Santa Maria, Weather by CustomWeather, © 2015

Note: Actual official high and low records may vary slightly from our data, if they occured in-between our weather recording intervals... More about our weather records

Advertising

Santa Maria weather history for previous 24 hours

 ConditionsComfort  
Time TempWeatherWind HumidityBarometerVisibility
7:00 AM
Sat, May 23
70 °FPartly sunny.15 mph78%30.04 "HgN/A
6:00 AM68 °FPartly sunny.16 mph83%30.04 "HgN/A
5:00 AM68 °FPartly sunny.16 mph83%30.01 "HgN/A
4:00 AM70 °FPartly sunny.16 mph78%30.01 "HgN/A
3:00 AM70 °FPassing clouds.15 mph78%30.04 "HgN/A
2:00 AM70 °FPassing clouds.15 mph78%30.04 "HgN/A
1:00 AM70 °FPassing clouds.12 mph83%30.07 "HgN/A
12:00 AM70 °FPassing clouds.13 mph83%30.09 "HgN/A
11:00 PM
Fri, May 22
70 °FPassing clouds.13 mph83%30.09 "HgN/A
10:00 PM70 °FPassing clouds.15 mph83%30.07 "HgN/A
9:00 PM70 °FPassing clouds.14 mph78%30.07 "HgN/A
8:00 PM70 °FPassing clouds.15 mph78%30.07 "HgN/A
7:00 PM72 °FPassing clouds.16 mph73%30.07 "HgN/A
5:00 PM75 °FPassing clouds.20 mph69%30.04 "HgN/A
4:00 PM77 °FScattered clouds.21 mph65%30.04 "HgN/A
3:00 PM77 °FScattered clouds.18 mph61%30.07 "HgN/A
2:00 PM77 °FScattered clouds.17 mph61%30.07 "HgN/A
1:00 PM77 °FScattered clouds.20 mph61%30.09 "HgN/A
12:00 PM77 °FScattered clouds.17 mph61%30.09 "HgN/A
11:00 AM77 °FPartly sunny.20 mph61%30.09 "HgN/A
10:00 AM75 °FPartly sunny.17 mph65%30.09 "HgN/A
9:00 AM73 °FPartly sunny.15 mph69%30.09 "HgN/A
8:00 AM72 °FPartly sunny.15 mph73%30.09 "HgN/A
Weather by CustomWeather, © 2015

See weather overviewHow to use our weather pages